Overview Statistics Trail Chart Weather Telemetry Raw packets
 

This is the latest recevied weather packets stored in our database for station/object XE2B-20. If no packets are shown the sender has not sent any weather packets the latest 10 day(s).

<< 1 2 3 4 5 6 >>
Time Temp. Humidity Pressure Rain* Wind** Luminosity Snow
1788605913 14.44° C 62% 807.6 hPa - - - -
1788604414 14.44° C 63% 807.5 hPa - - - -
1788602915 13.89° C 63% 807.7 hPa - - - -
1788601416 14.44° C 63% 807.5 hPa - - - -
1788599918 14.44° C 63% 807.6 hPa - - - -
1788598420 14.44° C 62% 807.5 hPa - - - -
1788596929 14.44° C 62% 807.6 hPa - - - -
1788595422 14.44° C 62% 807.6 hPa - - - -
1788593924 15° C 62% 807.7 hPa - - - -
1788592425 15° C 62% 807.8 hPa - - - -
1788590927 16.11° C 61% 807.9 hPa - - - -
1788589429 17.22° C 59% 807.8 hPa - - - -
1788587930 18.33° C 58% 808.1 hPa - - - -
1788586431 18.33° C 58% 808.1 hPa - - - -
1788584933 18.33° C 58% 807.9 hPa - - - -
1788583434 18.33° C 59% 807.9 hPa - - - -
1788581934 18.33° C 59% 808 hPa - - - -
1788580436 18.89° C 59% 808 hPa - - - -
1788578944 18.89° C 59% 808.4 hPa - - - -
1788577440 20° C 57% 807.8 hPa - - - -
1788575943 21.11° C 58% 807.3 hPa - - - -
1788574445 21.67° C 57% 806.9 hPa - - - -
1788572948 21.67° C 57% 806 hPa - - - -
1788571449 22.22° C 57% 805.9 hPa - - - -
1788569951 22.78° C 57% 805.9 hPa - - - -

* Rain since midnight (hover to see other rain measurements)
** Current wind speed in m/s (hover to see current wind gust speed)